Date String (YYYY-MM-DD hh:mm:ss) UTC,Instrument flags,absolute air pressure of the measurement (hPa),sample flow rate (lpm),inlet stack bypass flow (lpm),air temperature of the measurement (°C),ambient temperature measured by the external sensor (°C),aerosol sample conditioner tube jacket temperature (°C),OPC LED temperature (°C),internal box temperature (°C),relative humidity of the measurement (%),span deviation,mass concentration of particles derived from Lorenz-Mie calculation of OPC scattering (μg/m³),mass concentration of particles derived from Lorenz-Mie calculation of OPC scattering (μg/m³),mass concentration of particles derived from Lorenz-Mie calculation of OPC scattering (μg/m³)
DateTimeUTC,F1_M11,P_M11,Q1_M11,Q2_M11,T1_M11,T2_M11,T3_M11,T4_M11,T5_M11,U1_M11,ZSPAN_M11,X0_M11,X2_M11,X1_M11
2023-11-10 14:00:00,SystemResetWarning,0832.2,5.01,000.00,020.6,019.8,000.0,029.0,022.0,12.2,0000.0,0008.61,0004.24,0003.54
2023-11-10 14:01:00,SystemResetWarning,0832.2,5.00,000.00,020.6,019.8,000.0,029.0,022.0,12.2,0000.0,0008.71,0004.28,0003.57
2023-11-10 14:02:00,SystemResetWarning,0832.2,5.00,000.00,020.6,019.8,000.0,029.0,021.9,12.1,0000.0,0008.70,0004.30,0003.60
2023-11-10 14:03:00,SystemResetWarning,0832.3,4.99,000.00,020.6,019.7,000.0,029.0,022.0,12.1,0000.0,0008.08,0004.25,0003.60
2023-11-10 14:04:00,SystemResetWarning,0832.3,4.99,000.00,020.6,019.7,000.0,029.0,021.9,12.1,0000.0,0007.85,0004.23,0003.63
2023-11-10 14:05:00,SystemResetWarning,0832.3,5.00,000.00,020.6,019.7,000.0,029.0,021.9,12.1,0000.0,0008.18,0004.22,0003.66
2023-11-10 14:06:00,SystemResetWarning,0832.3,5.00,000.00,020.6,019.7,000.0,029.0,022.0,12.0,0000.0,0008.37,0004.22,0003.67
2023-11-10 14:07:00,SystemResetWarning,0832.3,5.00,000.00,020.6,019.7,000.0,029.0,021.9,12.0,0000.0,0008.72,0004.27,0003.69
2023-11-10 14:08:00,SystemResetWarning,0832.3,5.00,000.00,020.6,019.7,000.0,029.0,021.9,12.0,0000.0,0009.05,0004.29,0003.70
2023-11-10 14:09:00,SystemResetWarning,0832.3,5.00,000.00,020.6,019.7,000.0,029.0,021.9,12.0,0000.0,0009.07,0004.27,0003.69
2023-11-10 14:10:00,SystemResetWarning,0832.3,5.00,000.00,020.6,019.7,000.0,029.0,021.9,11.9,0000.0,0009.00,0004.27,0003.69
2023-11-10 14:11:00,SystemResetWarning,0832.3,5.00,000.00,020.6,019.7,000.0,029.0,021.9,11.9,0000.0,0009.22,0004.29,0003.67
2023-11-10 14:12:00,SystemResetWarning,0832.3,4.99,000.00,020.6,019.7,000.0,029.0,022.0,11.9,0000.0,0009.21,0004.27,0003.65
2023-11-10 14:13:00,SystemResetWarning,0832.3,4.99,000.00,020.6,019.7,000.0,029.0,021.9,11.8,0000.0,0009.22,0004.24,0003.64
2023-11-10 14:14:00,SystemResetWarning,0832.3,5.00,000.00,020.6,019.7,000.0,029.0,021.9,11.8,0000.0,0009.24,0004.25,0003.61
2023-11-10 14:15:00,SystemResetWarning,0832.3,5.00,000.00,020.6,019.7,000.0,028.9,021.9,11.8,0000.0,0009.18,0004.25,0003.58
2023-11-10 14:16:00,SystemResetWarning,0832.3,5.00,000.00,020.6,019.7,000.0,029.0,022.0,11.7,0000.0,0009.04,0004.26,0003.55
2023-11-10 14:17:00,SystemResetWarning,0832.3,5.00,000.00,020.6,019.7,000.0,029.0,022.0,11.6,0000.0,0008.69,0004.25,0003.52
2023-11-10 14:18:00,SystemResetWarning,0832.3,5.01,000.00,020.6,019.7,000.0,028.9,021.9,11.6,0000.0,0008.49,0004.20,0003.49
2023-11-10 14:19:00,SystemResetWarning,0832.4,5.00,000.00,020.6,019.7,000.0,028.9,021.9,11.6,0000.0,0007.89,0004.15,0003.47
2023-11-10 14:20:00,SystemResetWarning,0832.4,5.00,000.00,020.6,019.7,000.0,028.9,021.9,11.6,0000.0,0007.80,0004.12,0003.44
2023-11-10 14:21:00,SystemResetWarning,0832.4,5.01,000.00,020.6,019.7,000.0,028.9,021.9,11.6,0000.0,0008.13,0004.11,0003.40
2023-11-10 14:22:00,SystemResetWarning,0832.4,5.00,000.00,020.6,019.7,000.0,028.9,021.9,11.6,0000.0,0008.02,0004.05,0003.36
2023-11-10 14:23:00,SystemResetWarning,0832.4,5.00,000.00,020.6,019.7,000.0,028.9,022.0,11.6,0000.0,0007.77,0004.01,0003.34
2023-11-10 14:24:00,SystemResetWarning,0832.4,5.00,000.00,020.6,019.7,000.0,028.9,022.0,11.7,0000.0,0007.71,0003.96,0003.31
2023-11-10 14:25:00,SystemResetWarning,0832.4,4.99,000.00,020.6,019.7,000.0,028.9,021.9,11.7,0000.0,0007.65,0003.91,0003.28
2023-11-10 14:26:00,SystemResetWarning,0832.4,5.00,000.00,020.6,019.7,000.0,028.9,021.9,11.7,0000.0,0007.52,0003.85,0003.26
2023-11-10 14:27:00,SystemResetWarning,0832.5,5.00,000.00,020.6,019.7,000.0,028.9,022.0,11.7,0000.0,0007.42,0003.82,0003.24
2023-11-10 14:28:00,SystemResetWarning,0832.5,5.01,000.00,020.6,019.7,000.0,028.9,022.0,11.6,0000.0,0008.13,0003.79,0003.23
2023-11-10 14:29:00,SystemResetWarning,0832.5,5.01,000.00,020.6,019.7,000.0,028.9,022.0,11.6,0000.0,0008.44,0003.79,0003.22
2023-11-10 14:30:00,SystemResetWarning,0832.5,5.00,000.00,020.6,019.7,000.0,029.0,021.9,11.6,0000.0,0008.38,0003.74,0003.20
2023-11-10 14:31:00,SystemResetWarning,0832.5,5.00,000.00,020.6,019.7,000.0,029.0,021.9,11.6,0000.0,0008.69,0003.74,0003.21
2023-11-10 14:32:00,SystemResetWarning,0832.5,5.00,000.00,020.6,019.7,000.0,029.0,022.0,11.6,0000.0,0008.74,0003.71,0003.20
2023-11-10 14:33:00,SystemResetWarning,0832.6,5.00,000.00,020.6,019.7,000.0,029.0,022.0,11.6,0000.0,0008.58,0003.70,0003.20
2023-11-10 14:34:00,SystemResetWarning,0832.6,5.00,000.00,020.6,019.7,000.0,029.0,022.0,11.6,0000.0,0008.62,0003.69,0003.19
2023-11-10 14:35:00,SystemResetWarning,0832.5,4.99,000.00,020.6,019.7,000.0,029.0,022.0,11.6,0000.0,0008.65,0003.70,0003.19
2023-11-10 14:36:00,SystemResetWarning,0832.6,5.00,000.00,020.6,019.7,000.0,029.0,022.0,11.5,0000.0,0008.61,0003.70,0003.19
2023-11-10 14:37:00,SystemResetWarning,0832.5,5.00,000.00,020.6,019.7,000.0,029.0,022.0,11.5,0000.0,0008.55,0003.69,0003.19
2023-11-10 14:38:00,SystemResetWarning,0832.5,5.00,000.00,020.6,019.8,000.0,029.0,022.0,11.6,0000.0,0008.59,0003.71,0003.20
2023-11-10 14:39:00,SystemResetWarning,0832.5,5.01,000.00,020.6,019.8,000.0,029.0,022.0,12.9,0000.0,0007.98,0003.69,0003.19
2023-11-10 14:40:00,SystemResetWarning,0832.5,5.00,000.00,020.6,019.8,000.0,029.0,022.0,12.7,0000.0,0007.53,0003.68,0003.20
2023-11-10 14:41:00,SystemResetWarning,0832.5,5.00,000.00,020.7,019.8,000.0,029.0,022.0,12.5,0000.0,0007.59,0003.72,0003.19
2023-11-10 14:42:00,SystemResetWarning,0832.5,5.00,000.00,020.7,019.9,000.0,029.0,022.0,12.6,0000.0,0007.10,0003.69,0003.19
2023-11-10 14:43:00,SystemResetWarning,0832.5,5.00,000.00,020.7,019.9,000.0,029.0,022.1,12.5,0000.0,0006.47,0003.69,0003.19
2023-11-10 14:44:00,SystemResetWarning,0832.5,5.00,000.00,020.7,019.9,000.0,029.0,022.1,12.6,0000.0,0006.17,0003.68,0003.19
2023-11-10 14:45:00,SystemResetWarning,0832.5,4.99,000.00,020.7,019.9,000.0,029.0,022.1,12.2,0000.0,0006.08,0003.69,0003.19
2023-11-10 14:46:00,SystemResetWarning,0832.5,4.99,000.00,020.7,019.9,000.0,029.0,022.1,11.9,0000.0,0005.95,0003.69,0003.19
2023-11-10 14:47:00,SystemResetWarning,0832.5,5.00,000.00,020.7,019.9,000.0,029.0,022.1,11.9,0000.0,0005.97,0003.70,0003.19
2023-11-10 14:48:00,SystemResetWarning,0832.5,5.00,000.00,020.7,019.9,000.0,029.0,022.1,12.2,0000.0,0006.01,0003.70,0003.18
2023-11-10 14:49:00,SystemResetWarning,0832.5,4.99,000.00,020.7,019.9,000.0,029.0,022.2,11.9,0000.0,0006.11,0003.70,0003.19
2023-11-10 14:50:00,SystemResetWarning,0832.5,5.00,000.00,020.7,019.9,000.0,029.0,022.1,12.3,0000.0,0006.24,0003.74,0003.18
2023-11-10 14:51:00,SystemResetWarning,0832.5,5.00,000.00,020.7,020.0,000.0,029.0,022.1,12.2,0000.0,0006.17,0003.73,0003.16
2023-11-10 14:52:00,SystemResetWarning,0832.6,5.00,000.00,020.7,020.0,000.0,029.0,022.1,12.0,0000.0,0006.09,0003.69,0003.16
2023-11-10 14:53:00,SystemResetWarning,0832.6,5.00,000.00,020.8,020.0,000.0,029.0,022.2,12.4,0000.0,0006.30,0003.71,0003.14
2023-11-10 14:54:00,SystemResetWarning,0832.6,5.00,000.00,020.8,020.0,000.0,029.0,022.2,12.8,0000.0,0006.58,0003.75,0003.14
2023-11-10 14:55:00,SystemResetWarning,0832.6,5.00,000.00,020.8,020.0,000.0,029.1,022.2,12.9,0000.0,0006.81,0003.74,0003.12
2023-11-10 14:56:00,SystemResetWarning,0832.6,5.00,000.00,020.8,020.1,000.0,029.1,022.2,12.6,0000.0,0007.23,0003.72,0003.11
2023-11-10 14:57:00,SystemResetWarning,0832.7,5.00,000.00,020.8,020.1,000.0,029.1,022.2,12.7,0000.0,0007.10,0003.68,0003.10
2023-11-10 14:58:00,SystemResetWarning,0832.7,5.00,000.00,020.8,020.1,000.0,029.1,022.2,12.8,0000.0,0007.18,0003.70,0003.10
2023-11-10 14:59:00,SystemResetWarning,0832.7,5.00,000.00,020.8,020.1,000.0,029.1,022.2,12.3,0000.0,0007.29,0003.74,0003.10
